Location: Bishopstone
(51.0167°N, 1.9000°W)
Time: 11:15:46
(UTC+00:00)

Cosmos 2151 Rocket - Pass Details

Date: 16 September 2019
Orbit: 618 x 642 km, 82.5° (Epoch: 14 October)

Event Time Altitude Azimuth Distance (km) Brightness Sun altitude
Rises 19:10:26 0° 188° (S) 2,894 6.9 -8.6°
Reaches altitude 10° 19:12:39 10° 189° (S) 1,989 6.1 -8.9°
Maximum altitude 19:17:04 89° 91° (E) 628 3.6 -9.6°
Drops below altitude 10° 19:21:30 10° 11° (N) 1,997 6.3 -10.3°
Sets 19:23:44 0° 11° (N) 2,907 7.1 -10.6°
